Regional Weather Roundup
Issued by NWS

Home | Current Version | Previous Version | Graphics & Text | Print | Product List | Glossary On
Versions: 1 2 3 4 5 6 7 8 9 10 11 12 13 14 15 16 17 18 19 20 21 22 23 24 25 26 27 28 29 30 31 32 33 34 35 36 37 38 39 40 41 42 43 44 45 46 47 48 49 50
000
ASUS43 KLMK 050102
RWRKY
KENTUCKY REGIONAL WEATHER ROUNDUP
NATIONAL WEATHER SERVICE LOUISVILLE KY
900 PM EDT SAT JUL 04 2015

NOTE "FAIR" INDICATES FEW OR NO CLOUDS BELOW 12,000 FEET
WITH NO SIGNIFICANT WEATHER AND/OR OBSTRUCTIONS TO VISIBILITY.

KYZ001>023-026-027-061>063-070>075-050200-
WESTERN AND SOUTH CENTRAL KENTUCKY

CITY           SKY/WX    TMP DP  RH WIND       PRES   REMARKS
PADUCAH        CLOUDY    76  70  82 CALM      29.97S
HENDERSON      CLOUDY    77  66  69 NW3       29.97R
OWENSBORO      CLOUDY    79  69  71 CALM      29.98R
HOPKINSVILLE   CLOUDY    74  69  83 NE3       29.98R
BOWLING GREEN  CLOUDY    77  67  71 CALM      29.98R
GLASGOW        NOT AVBL
$$

KYZ024-025-028>034-038-045-046-053-050200-
NORTH CENTRAL KENTUCKY

CITY           SKY/WX    TMP DP  RH WIND       PRES   REMARKS
LOUISVILLE/SDF CLOUDY    80  66  62 E6        29.98R
LOUISVILLE/LOU CLOUDY    79  66  64 E5        29.99R
FORT KNOX      NOT AVBL
$$

KYZ035>037-039>044-047>052-055>060-089>105-050200-
NORTHEAST KENTUCKY

CITY           SKY/WX    TMP DP  RH WIND       PRES   REMARKS
LEXINGTON      CLOUDY    75  65  70 E5        30.02R
COVINGTON      MOCLDY    75  63  66 N7        30.01R
FRANKFORT      CLOUDY    76  66  71 CALM      30.00R
$$

KYZ054-064>069-076>088-106>120-050200-
SOUTHEAST KENTUCKY

CITY           SKY/WX    TMP DP  RH WIND       PRES   REMARKS
JACKSON        CLOUDY    72  67  84 CALM      30.04R
LONDON         CLOUDY    75  67  76 E5        30.02R
SOMERSET       NOT AVBL
MIDDLESBORO    CLOUDY    73  69  86 CALM      30.03R
MONTICELLO     CLOUDY    74  74 100 CALM      30.03R
$$




USA.gov is the U.S. government's official web portal to all federal, state and local government web resources and services.